Dewpoint
-16 -17 -14 -14 -15 -15 -14 -13 -13 -14 -15 -15 -16 -16 -16 -16 -16 -16 -16 -16 -16 -17 -16 -16 -13 -12 -3 -4 -5 -4 -4 3 3 5 7 7 6 1 -4 -9 -11 -8 -7 -8 -10 -10 -9
-12 -14 -18 -21 -21 -20 -18 -16 -15 -14 -15 -16 -15 -15 -15 -16 -16 -17 -16 -13 -11 -9 -10 -12 -10 -8 -1 -3 -5 -5 -5 -4 -2 2 5 6 6 3 -5 -10 -13 -13 -9 -8 -8 -8 -8
-15 -17 -16 -13 -12 -12 -13 -13 -17 -15 -16 -16 -15 -15 -16 -17 -18 -17 -13 -10 -9 -8 -8 -9 -9 -0 -2 -3 -4 -4 -5 -5 -4 -1 4 4 4 3 1 -6 -13 -15 -11 -9 -8 -8 -7
-8 -7 -7 -7 -8 -8 -8 -9 -11 -17 -19 -19 -17 -16 -16 -16 -15 -13 -11 -9 -8 -8 -8 -8 -8 0 -1 -2 -3 -5 -5 -6 -7 -5 -2 3 6 4 0 -3 -8 -12 -12 -7 -9 -9 -9
-0 -0 -2 -2 -4 -4 -4 -6 -9 -11 -17 -20 -17 -15 -15 -15 -13 -9 -7 -8 -8 -6 -6 -8 -1 1 -2 -5 -6 -7 -7 -7 -8 -10 -5 -1 3 5 2 0 -2 -7 -8 -8 -9 -11 -9
-4 -7 -9 -8 -7 -7 -7 -6 -8 -9 -13 -19 -17 -15 -15 -13 -10 -8 -7 -2 -3 -1 -4 -1 -1 -2 -1 -3 -5 -4 -6 -7 -8 -8 -9 -3 2 5 5 2 5 -2 -5 -8 -9 -12 -13
-4 -4 -6 -7 -6 -6 -5 -4 -5 -8 -11 -17 -17 -15 -14 -12 -8 -4 -1 -2 -4 -2 -2 -3 -3 -3 -3 -3 -2 -4 -5 -7 -6 -5 -9 -4 4 7 4 2 0 1 -1 -5 -8 -13 -12
-3 -5 -6 -6 -4 -2 -2 -3 -4 -6 -10 -16 -17 -15 -14 -11 -7 -0 0 -0 -0 -0 0 -3 -4 -2 -4 -4 -4 -4 -6 -6 -6 -4 -9 -5 4 2 -0 -1 0 0 1 -1 -6 -9 -10
-3 -6 -8 -8 -7 -5 -3 -2 -3 -6 -9 -15 -18 -15 -14 -9 -3 0 -1 1 -1 -1 1 -5 -6 -5 -6 -6 -0 -2 -3 -7 -6 -3 -7 -7 -3 -3 -2 -1 0 1 -0 -1 -3 -5 -7
-3 -7 -9 -9 -9 -6 -5 -4 -3 -6 -9 -14 -17 -14 -14 -8 -1 -0 -1 -1 1 0 2 -9 -11 -12 -7 -8 -3 -4 -5 -6 -5 -1 -4 -11 -9 -6 -2 0 -1 1 -2 -2 -1 -1 0
-2 -8 -10 -10 -9 -8 -6 -5 -4 -6 -10 -14 -17 -15 -14 -10 -0 -1 -1 -0 0 1 1 -10 -13 -12 -14 -9 -6 -3 -2 -4 -6 -2 2 -7 -12 -8 -5 -3 -2 -1 -3 -2 -1 1 2
-2 -9 -10 -10 -9 -7 -6 -6 -6 -7 -10 -14 -17 -15 -13 -1 0 -0 -1 1 1 2 -1 -8 -14 -14 -15 -16 -10 -2 -1 -5 -6 -7 -1 1 -6 -8 -10 -8 -5 -4 -2 -1 -1 -1 3
-1 -10 -10 -10 -8 -7 -7 -7 -7 -9 -10 -14 -17 -15 -11 -1 -1 -3 -2 -1 2 -1 -7 -11 -12 -14 -15 -15 -13 -8 -1 -2 -3 -1 -4 -3 -2 -4 -5 -7 -9 0 2 8 9 10 5
-1 -9 -10 -9 -8 -8 -7 -7 -8 -10 -11 -15 -18 -16 -5 -0 -3 -8 0 -3 -1 -2 -7 -12 -13 -16 -14 -14 -13 -10 -4 -2 -5 -7 -3 2 1 -4 -5 -4 -7 -0 4 7 6 2 0
-3 -7 -10 -9 -8 -8 -8 -8 -9 -9 -11 -14 -17 -4 -2 -1 -11 -6 -3 2 0 -6 -10 -10 -13 -12 -13 -14 -13 -9 -4 -5 -3 -5 -0 2 4 -0 -1 -3 -3 -5 2 2 3 -0 -1
-3 -4 -10 -9 -9 -8 -8 -8 -9 -9 -10 -13 -5 -6 -5 -11 -13 -1 -1 -0 -3 -9 -10 -10 -10 -11 -10 -11 -9 -8 -8 -8 -3 -6 -5 -1 -0 -1 -5 -4 -2 3 0 4 7 8 6
-5 -4 -10 -8 -9 -9 -8 -8 -8 -8 -10 -12 -3 -6 -2 -15 -8 -4 4 -1 -6 -9 -10 -8 -9 -9 -10 -9 -9 -7 -8 -9 -8 -8 -6 -4 -1 -3 -6 -2 3 5 5 6 7 4 4
-7 -4 -7 -9 -8 -9 -9 -8 -7 -8 -9 -10 -5 1 -3 -12 -2 -1 1 -5 -6 -9 -9 -8 -8 -9 -9 -8 -7 -8 -8 -8 -7 -8 -5 -4 -3 -2 -5 -5 -7 -1 4 4 6 6 8
-9 -5 -3 -9 -8 -8 -9 -8 -8 -8 -8 -4 -2 -2 -4 -4 4 2 -2 -1 -6 -8 -9 -8 -9 -9 -9 -7 -3 -6 -8 -8 -8 -8 -2 -5 1 -1 -4 -3 -5 -1 1 1 3 4 4
-11 -6 -5 -4 -7 -8 -8 -8 -8 -9 -9 -4 -3 1 -5 -2 -5 -5 -4 -3 -3 -8 -8 -8 -8 -9 -7 -5 -8 -6 -8 -9 -10 -9 -3 -3 -3 -3 -2 -2 -5 -6 -7 -3 1 2 0
-11 -8 -6 -2 -7 -7 -7 -7 -8 -8 -8 -4 -3 -1 -4 1 -0 -5 -6 -6 -7 -7 -8 -8 -8 -8 -8 -3 -3 -5 -8 -9 -10 -6 -7 -3 -2 -7 -8 -9 -9 -9 -9 -9 -7 -5 -1
-15 -15 -5 -4 -2 -7 -6 -6 -6 -7 -7 -2 -7 -1 -6 -7 -6 -6 -5 -3 -6 -9 -8 -6 -7 -8 -7 -5 -7 -2 -7 -7 -6 -9 -7 -5 -1 -4 -1 -8 -10 -10 -11 -11 -11 -10 -9
-12 -11 -8 -5 -4 -3 -6 -6 -6 -6 -5 -1 -3 -4 -5 -4 -6 -6 -4 -6 -7 -8 -7 -8 -8 -6 -6 -7 -6 -8 -8 -8 -7 -6 -6 -3 -2 -2 -1 -8 -8 -4 -7 -11 -11 -13 -13
-5 -8 -14 -7 -4 -2 -2 -5 -5 -5 -4 -1 -3 -5 -3 -1 -5 -5 -8 -9 -8 -9 -7 -8 -9 -8 -9 -6 -6 -8 -8 -9 -10 -9 -10 -6 -4 -1 -0 -4 -0 -7 -12 -12 -11 -12 -13
-3 -6 -11 -10 -3 -2 -3 -3 -4 -5 -3 -2 -2 -2 -2 -1 -6 -7 -7 -8 -8 -8 -8 -8 -9 -8 -8 -8 -3 -3 -1 -0 -0 -7 -8 -8 -5 0 -0 -2 -6 -8 -10 -11 -10 -10 -12
-3 -3 -7 -9 -4 -3 -3 -3 -3 -3 -4 -2 -1 -4 -1 -2 -3 -7 -7 -8 -6 -5 -5 -7 -7 -7 -6 -5 -4 -3 -4 -7 -7 -10 -10 -9 -6 -1 -1 2 -1 -10 -12 -12 -12 -5 -11
-3 -3 -3 -5 -5 -3 -3 -3 -3 -3 -4 -3 -2 -3 -1 -2 -5 -6 -5 -5 -7 -7 -5 -7 -6 -6 -5 -1 -1 -1 -3 -9 -8 -10 -6 -3 -0 -0 -1 -1 -4 -10 -11 -12 -5 -5 -7
-3 -3 -3 -3 -3 -4 -8 -3 -3 -3 -3 -4 -2 -3 -2 -2 -4 -5 -5 -6 -7 -7 -4 -6 -5 -6 -4 -2 -3 -4 -3 -6 -7 -9 -10 -8 -6 -3 1 0 -2 -9 -9 -4 -6 -8 -8
-3 -3 -4 -4 -3 -3 -4 -4 -4 -3 -3 -4 -3 -3 -3 -2 -3 -3 -3 -3 -5 -7 -7 -6 -6 -7 -6 -3 -3 -3 -3 -2 -4 -3 -10 -7 -9 -4 -6 -4 -8 -11 -12 -11 -9 -7 -7
Wind_Speed
2 4 4 5 5 6 6 7 7 8 9 10 11 12 13 14 15 16 17 19 19 19 20 19 19 18 15 11 22 14 17 12 9 7 16 23 26 30 27 26 28 29 27 31 27 31 21
4 4 4 4 5 5 5 6 7 9 10 11 13 14 15 16 18 19 21 22 22 22 21 19 16 15 14 22 9 14 14 16 14 10 14 19 23 28 27 33 25 33 29 28 30 25 27
4 4 4 4 4 5 7 8 10 10 11 13 14 15 16 17 19 21 23 23 21 23 21 18 14 12 18 24 17 21 22 23 19 15 17 18 19 21 27 24 35 33 26 18 25 34 23
4 4 3 4 5 7 8 9 10 10 11 12 13 14 16 18 20 22 23 20 19 19 18 13 12 11 18 17 17 22 22 25 22 23 21 18 11 21 28 21 23 25 26 24 28 22 28
3 3 3 4 5 6 7 8 9 10 10 11 12 13 15 18 21 23 22 16 12 12 14 8 8 9 20 8 8 13 11 16 20 23 26 22 19 21 17 21 20 21 23 32 27 27 21
3 4 4 4 5 6 7 8 8 9 10 10 12 13 16 19 21 24 19 14 12 8 13 4 4 13 7 17 26 20 18 18 20 19 25 24 17 17 19 18 23 30 30 29 30 27 26
3 4 5 5 6 7 7 8 9 9 9 10 11 13 15 18 19 23 23 10 8 4 8 7 14 14 18 23 21 22 18 15 14 21 23 30 17 20 29 29 24 28 30 30 24 22 27
5 5 6 6 6 7 8 9 9 9 8 9 10 12 14 16 14 17 19 11 7 5 9 6 8 12 14 15 25 15 10 16 18 20 24 24 26 31 26 27 28 27 29 28 25 18 19
6 7 7 7 8 9 9 9 9 8 7 7 9 11 13 15 11 13 13 14 13 8 6 6 9 8 17 18 9 12 14 14 16 17 25 27 30 30 30 28 28 28 26 25 17 18 14
7 7 8 8 9 9 9 8 7 6 6 6 8 10 12 11 7 9 7 12 10 9 4 9 12 10 14 14 5 27 16 17 10 13 22 26 30 26 30 29 28 27 24 23 19 19 18
8 8 8 8 9 9 7 6 5 5 5 5 7 9 11 11 7 8 11 13 7 3 5 12 12 13 16 7 14 4 18 12 19 16 8 23 27 30 25 27 28 29 22 22 25 21 20
8 7 7 8 7 6 4 3 3 4 4 4 6 8 9 7 6 8 13 12 1 4 4 10 15 16 17 17 15 21 17 14 15 14 8 22 14 16 27 24 24 26 24 20 18 20 19
8 7 7 6 5 4 2 2 2 4 4 4 5 6 6 5 6 12 13 5 4 3 11 11 18 17 12 17 13 12 15 11 6 9 16 14 15 18 10 20 26 16 18 9 11 9 16
8 7 6 5 3 3 2 2 3 3 4 4 5 6 5 4 9 11 7 6 3 4 6 13 14 16 10 15 14 11 15 14 17 16 13 5 13 20 15 15 21 21 21 8 15 17 21
10 7 6 4 3 2 3 3 3 3 4 4 5 5 3 6 9 7 5 1 2 7 10 12 15 13 11 14 13 11 8 11 10 16 10 8 1 15 8 4 7 18 21 23 20 16 14
12 8 7 5 4 3 4 4 4 3 3 3 2 4 4 7 8 3 2 1 2 5 9 9 9 10 13 15 12 14 12 13 12 17 16 8 9 3 7 2 6 8 12 17 10 9 19
15 11 8 6 5 4 4 4 4 3 2 3 1 3 5 7 4 2 0 2 4 4 8 7 11 11 13 13 12 7 10 8 15 17 13 12 7 8 11 3 3 5 3 4 6 13 9
17 14 10 8 7 6 5 5 5 4 1 2 2 1 5 2 1 2 2 3 3 5 4 6 6 8 8 13 8 10 10 12 12 18 14 8 6 11 9 7 4 10 4 3 3 5 9
19 17 11 11 8 7 6 7 6 4 3 1 2 3 3 1 2 2 4 1 5 6 4 4 6 4 10 9 5 10 14 8 11 16 10 9 3 8 4 5 1 5 2 3 3 3 5
20 20 15 12 11 8 7 7 6 6 4 3 1 1 2 1 4 3 3 3 3 6 9 7 8 9 8 8 8 8 13 5 15 14 6 5 8 10 10 7 7 12 12 7 7 4 10
20 21 19 13 13 11 8 8 7 7 6 5 1 3 2 2 4 6 4 5 8 5 6 7 6 8 8 2 8 9 15 15 15 2 6 5 6 14 15 18 17 18 17 16 16 14 13
22 22 22 18 15 14 11 9 9 8 8 4 4 4 4 7 4 7 4 4 8 7 5 8 8 10 7 10 13 14 16 15 15 14 10 5 5 14 15 17 17 17 17 18 19 19 19
21 21 23 20 16 15 14 12 10 10 11 6 7 5 4 4 5 6 7 8 5 2 6 10 9 9 12 14 14 19 22 23 19 18 16 14 9 8 14 12 13 13 17 14 16 18 19
24 23 23 24 18 16 15 15 13 11 13 6 7 6 4 5 7 8 6 8 9 10 11 13 15 14 17 12 19 19 22 24 23 19 21 16 13 8 9 13 12 6 4 9 13 16 17
25 25 24 24 21 18 17 15 14 13 13 12 10 7 5 5 11 10 11 12 13 14 14 16 13 14 13 12 8 7 6 3 4 9 8 11 11 5 5 10 15 18 10 5 12 14 13
27 25 25 24 26 23 20 19 15 14 14 13 11 13 6 2 7 11 11 13 9 8 9 14 11 6 7 7 7 7 8 11 4 3 5 6 8 8 9 8 7 2 5 8 8 13 4
29 26 25 24 23 25 24 21 21 19 16 14 11 13 10 7 18 17 11 8 10 8 6 13 5 5 6 3 7 10 12 14 9 9 4 4 4 11 12 12 10 9 11 14 9 9 22
29 27 25 24 23 23 23 26 23 22 21 19 11 12 14 8 20 21 17 16 16 14 8 6 6 8 5 4 4 5 5 7 8 12 9 11 9 9 6 8 13 9 9 8 15 29 31
31 29 26 24 25 23 20 22 24 23 21 20 16 13 14 16 15 9 14 18 25 24 19 13 10 3 6 3 3 3 6 5 11 13 17 13 13 11 15 11 28 33 28 30 29 27 30
Wind_Direction
89 80 65 50 37 26 20 15 10 7 7 6 5 3 359 354 350 347 342 336 331 325 322 319 316 314 324 279 250 282 281 284 290 252 225 217 221 226 228 230 235 230 241 244 240 257 245
98 81 67 49 31 19 19 18 9 6 4 3 4 1 357 352 347 342 337 333 328 321 311 307 306 304 296 274 276 267 275 281 277 259 233 219 229 232 244 234 230 235 240 244 248 230 243
72 58 48 39 32 30 21 12 8 3 2 360 359 356 352 349 344 338 334 331 326 322 314 292 295 295 279 264 274 278 282 273 263 246 244 233 233 236 233 246 236 243 244 234 238 242 235
68 57 38 21 12 9 8 4 358 356 355 354 354 353 351 347 342 337 334 332 326 326 321 304 291 289 276 290 286 281 276 266 255 245 242 244 263 239 246 245 244 229 236 243 232 228 233
29 360 346 342 339 339 341 341 343 347 349 351 352 353 350 347 344 346 348 339 349 12 358 335 317 268 285 302 286 307 287 262 254 244 238 240 243 242 226 233 227 224 227 226 241 223 210
294 310 326 337 334 329 325 324 326 336 345 348 354 355 351 351 347 347 346 357 343 24 351 332 296 305 270 313 304 298 277 272 255 238 225 222 229 234 227 211 219 213 223 231 228 226 218
312 323 322 319 319 316 315 314 317 328 338 348 353 355 351 352 349 356 5 11 5 210 5 337 313 307 304 315 299 288 266 255 237 232 220 204 209 213 218 219 230 241 230 233 242 243 212
302 309 312 313 309 309 311 310 308 320 333 343 349 351 351 353 356 25 18 43 14 309 310 323 322 305 311 313 305 287 237 236 241 233 222 215 215 220 224 234 226 236 247 250 237 228 228
301 308 310 312 304 298 292 292 302 310 325 335 343 350 353 356 25 19 23 16 0 357 271 315 296 304 333 332 313 319 300 230 261 252 227 223 215 222 229 232 240 224 235 238 248 237 252
296 306 311 309 306 302 295 286 289 299 316 329 338 350 352 7 20 355 9 359 340 339 284 19 352 2 323 329 289 311 296 258 245 260 244 231 235 220 222 228 234 241 221 244 251 243 229
291 305 311 313 315 308 298 279 273 283 305 320 331 346 353 357 343 358 329 332 325 289 331 340 330 339 341 26 333 4 315 268 257 240 295 221 230 237 235 217 228 238 242 221 242 240 245
285 299 306 311 313 317 300 270 261 278 303 309 325 341 356 352 350 327 326 325 310 263 352 321 347 341 337 359 22 353 342 224 272 271 204 272 299 270 246 245 220 234 245 246 247 241 244
278 288 297 308 316 321 297 258 248 280 296 299 321 336 352 345 318 330 336 313 280 358 328 344 340 333 351 360 353 25 351 15 355 273 231 232 236 257 257 238 235 225 224 217 220 221 230
263 271 288 301 306 300 268 252 261 280 292 300 317 331 316 315 337 344 344 296 283 313 317 336 323 327 16 15 337 7 26 15 2 337 303 287 210 216 222 239 219 211 209 211 209 218 233
239 254 268 279 277 264 258 251 262 284 296 310 333 339 294 288 347 349 327 307 16 311 347 337 318 347 3 17 347 15 53 21 360 3 346 332 74 337 343 310 245 221 216 226 261 279 275
226 242 247 255 247 246 246 245 259 281 295 316 342 292 243 306 340 330 33 355 261 316 322 330 341 345 350 3 4 0 21 23 11 2 347 333 302 309 306 224 262 311 322 207 221 215 243
218 229 232 241 238 237 236 236 252 273 299 333 322 270 275 322 19 294 188 262 258 311 326 324 336 334 336 351 340 24 347 34 5 351 355 343 313 291 291 206 72 339 268 318 327 239 238
218 218 224 232 235 231 227 233 249 258 275 17 275 297 282 24 214 345 218 314 338 282 276 286 292 320 337 329 336 358 358 22 6 347 349 343 316 307 328 309 336 82 52 54 311 356 238
218 217 218 223 231 228 225 229 240 237 209 273 257 267 333 40 220 215 280 352 274 277 288 300 299 321 309 320 344 336 334 26 341 339 352 329 317 307 205 185 72 68 123 144 167 197 252
221 216 217 221 224 226 221 219 220 219 200 135 220 201 303 345 235 266 206 255 241 249 274 269 282 284 290 336 320 309 311 356 333 331 354 295 300 301 302 309 287 297 301 203 160 249 270
224 217 215 216 221 221 220 216 210 205 194 149 200 227 192 166 235 249 223 230 268 258 242 267 283 268 299 292 292 294 320 317 322 79 266 358 285 306 313 315 311 299 292 288 281 266 253
225 218 213 214 216 218 217 216 211 198 189 195 188 195 216 274 234 240 155 270 246 262 223 272 266 287 294 293 304 305 313 312 314 302 315 336 286 316 301 288 278 279 288 292 280 274 274
221 221 212 212 213 217 218 217 215 200 178 212 214 247 267 255 236 242 234 232 248 261 293 284 294 302 296 294 307 306 299 292 282 283 283 285 278 293 283 297 323 293 268 267 259 259 266
220 219 218 211 210 211 220 219 216 207 192 209 212 239 208 258 225 236 243 252 260 261 278 282 285 283 288 298 298 294 293 283 277 268 263 260 261 276 282 292 268 262 304 295 276 273 281
222 218 218 208 205 206 212 220 219 214 205 199 217 212 219 258 261 255 253 257 270 263 252 262 281 297 305 292 288 301 270 245 250 258 272 245 240 253 258 264 279 286 284 354 321 310 304
225 219 216 213 206 209 209 213 216 219 216 214 226 219 220 250 250 261 265 257 272 280 282 275 274 257 279 279 277 267 290 309 281 255 238 272 239 248 267 285 281 291 339 349 307 298 317
222 222 216 213 210 209 212 211 214 220 217 210 229 229 218 227 263 265 260 262 272 280 288 290 274 281 254 242 248 263 278 291 281 285 215 214 240 244 251 256 267 280 304 310 261 292 334
217 220 218 212 210 214 213 212 213 219 223 216 224 234 220 254 262 263 256 259 260 250 252 254 328 234 224 251 260 270 258 269 272 274 282 286 276 267 262 257 264 318 337 336 314 307 307
210 216 217 213 210 210 209 205 212 218 223 221 229 237 246 248 253 269 260 252 246 246 253 243 237 254 203 258 278 294 280 297 281 284 280 274 271 271 274 274 298 300 299 295 298 303 302
Height
1524 1524 1524 1524 1524 1524 1524 1523 1521 1520 1517 1515 1513 1510 1508 1507 1505 1502 1499 1497 1494 1491 1488 1486 1484 1482 1482 1480 1474 1474 1472 1472 1470 1472 1471 1471 1472 1471 1463 1464 1464 1458 1457 1458 1457 1457 1458
1525 1524 1524 1524 1524 1525 1524 1523 1521 1519 1517 1515 1512 1510 1508 1506 1503 1500 1497 1494 1490 1487 1485 1483 1481 1480 1481 1475 1470 1470 1470 1468 1468 1468 1468 1466 1466 1465 1459 1457 1452 1452 1455 1453 1454 1454 1458
1525 1524 1524 1524 1525 1525 1524 1522 1521 1519 1516 1514 1512 1510 1507 1504 1501 1498 1495 1491 1487 1483 1480 1479 1478 1478 1477 1471 1468 1467 1466 1464 1465 1465 1464 1463 1464 1462 1458 1451 1449 1449 1449 1446 1447 1449 1450
1526 1525 1524 1524 1524 1524 1523 1522 1520 1518 1516 1514 1512 1509 1506 1503 1500 1496 1492 1488 1484 1481 1477 1475 1476 1476 1471 1466 1465 1463 1461 1458 1459 1461 1461 1460 1461 1459 1455 1450 1445 1443 1445 1445 1435 1442 1444
1526 1525 1524 1523 1523 1523 1522 1521 1520 1518 1515 1513 1511 1508 1505 1502 1498 1493 1489 1485 1482 1480 1477 1475 1475 1475 1467 1463 1462 1459 1457 1456 1455 1455 1457 1458 1459 1456 1453 1448 1443 1436 1434 1434 1431 1428 1438
1525 1524 1523 1522 1522 1521 1521 1520 1518 1516 1514 1512 1509 1506 1503 1500 1496 1492 1488 1484 1482 1479 1478 1477 1476 1474 1468 1466 1460 1457 1456 1453 1450 1450 1452 1454 1454 1451 1443 1436 1429 1423 1425 1416 1414 1418 1422
1523 1522 1521 1521 1520 1520 1519 1518 1516 1515 1513 1511 1508 1506 1503 1500 1496 1492 1486 1484 1484 1481 1479 1480 1476 1472 1466 1462 1457 1452 1450 1448 1447 1446 1438 1441 1445 1436 1421 1421 1420 1412 1411 1410 1405 1402 1408
1522 1521 1520 1519 1519 1518 1517 1516 1514 1513 1512 1510 1508 1506 1503 1500 1497 1494 1493 1490 1493 1494 1486 1478 1474 1471 1465 1460 1452 1445 1445 1447 1443 1434 1435 1430 1428 1421 1424 1416 1418 1415 1412 1403 1397 1396 1402
1521 1519 1518 1517 1517 1516 1515 1513 1512 1511 1510 1509 1507 1505 1503 1500 1498 1497 1497 1495 1494 1492 1490 1474 1469 1465 1462 1458 1455 1448 1446 1440 1435 1429 1425 1418 1407 1422 1421 1419 1414 1411 1412 1408 1404 1405 1404
1519 1518 1517 1515 1514 1513 1512 1511 1510 1510 1509 1508 1507 1505 1502 1500 1500 1499 1499 1498 1496 1493 1482 1469 1464 1462 1459 1454 1454 1448 1441 1440 1436 1432 1420 1415 1411 1406 1414 1415 1415 1411 1405 1411 1412 1414 1416
1517 1516 1515 1513 1512 1510 1509 1509 1509 1509 1508 1507 1506 1504 1502 1499 1500 1501 1500 1497 1495 1495 1476 1473 1464 1463 1456 1455 1454 1445 1443 1440 1430 1430 1432 1410 1408 1406 1400 1405 1410 1407 1407 1409 1415 1416 1419
1514 1514 1513 1511 1510 1508 1507 1507 1507 1507 1507 1506 1505 1504 1502 1502 1501 1500 1497 1495 1494 1489 1480 1472 1466 1461 1454 1452 1449 1452 1441 1436 1432 1425 1432 1422 1412 1407 1403 1400 1405 1412 1413 1412 1414 1413 1420
1512 1512 1511 1510 1508 1507 1506 1506 1506 1506 1506 1505 1504 1503 1501 1501 1501 1497 1494 1495 1488 1485 1486 1473 1469 1462 1453 1452 1446 1448 1448 1438 1431 1428 1417 1417 1416 1412 1408 1405 1405 1413 1417 1434 1436 1432 1411
1510 1509 1509 1508 1506 1506 1506 1505 1505 1505 1505 1504 1503 1502 1502 1501 1498 1496 1496 1491 1491 1494 1482 1477 1471 1461 1456 1454 1451 1446 1449 1448 1439 1430 1417 1421 1413 1408 1406 1404 1398 1403 1413 1417 1419 1402 1396
1507 1507 1506 1505 1505 1504 1505 1505 1504 1504 1503 1503 1503 1503 1502 1501 1497 1496 1496 1494 1497 1488 1485 1481 1468 1465 1459 1456 1454 1450 1454 1454 1454 1445 1442 1431 1419 1418 1406 1403 1404 1397 1403 1407 1411 1400 1395
1503 1503 1503 1503 1502 1502 1503 1503 1503 1503 1503 1502 1503 1503 1502 1499 1497 1496 1496 1501 1497 1493 1491 1485 1475 1471 1465 1460 1461 1458 1453 1456 1459 1453 1448 1443 1429 1427 1418 1413 1410 1416 1406 1414 1420 1428 1425
1498 1500 1500 1500 1500 1500 1501 1501 1502 1502 1502 1501 1502 1501 1499 1498 1497 1496 1497 1499 1495 1494 1494 1489 1482 1477 1472 1466 1464 1463 1461 1458 1461 1457 1452 1445 1440 1426 1420 1414 1429 1427 1417 1421 1422 1405 1408
1494 1496 1496 1497 1498 1498 1499 1499 1500 1500 1501 1501 1502 1503 1499 1498 1499 1501 1499 1496 1499 1493 1493 1490 1487 1480 1475 1471 1470 1465 1463 1462 1467 1462 1456 1453 1449 1434 1418 1422 1420 1428 1440 1441 1435 1434 1410
1489 1491 1492 1494 1495 1496 1496 1497 1498 1499 1499 1502 1501 1501 1499 1497 1496 1500 1500 1499 1497 1493 1490 1488 1484 1481 1480 1475 1479 1472 1466 1467 1468 1464 1465 1458 1454 1439 1419 1421 1423 1429 1437 1438 1442 1447 1434
1483 1486 1488 1490 1492 1493 1493 1495 1496 1497 1498 1500 1501 1501 1500 1498 1497 1492 1494 1496 1497 1493 1492 1490 1486 1483 1478 1479 1475 1475 1466 1465 1465 1464 1467 1465 1456 1446 1440 1445 1438 1429 1424 1426 1438 1440 1422
1478 1480 1483 1486 1488 1489 1491 1492 1493 1495 1497 1499 1500 1498 1496 1498 1497 1492 1492 1492 1490 1489 1491 1488 1483 1481 1479 1484 1482 1477 1469 1465 1463 1462 1462 1465 1462 1448 1442 1436 1436 1430 1425 1420 1418 1416 1422
1472 1475 1478 1481 1483 1485 1488 1489 1491 1492 1495 1498 1498 1497 1495 1490 1491 1491 1492 1495 1488 1485 1486 1487 1482 1480 1480 1479 1476 1475 1471 1469 1466 1461 1459 1463 1463 1455 1456 1441 1430 1425 1422 1420 1416 1413 1411
1466 1469 1472 1475 1478 1481 1484 1486 1488 1490 1492 1494 1495 1494 1493 1490 1486 1486 1485 1485 1487 1487 1488 1486 1484 1483 1481 1479 1478 1476 1474 1471 1467 1464 1461 1461 1463 1461 1451 1434 1431 1435 1422 1411 1410 1408 1406
1460 1463 1466 1470 1473 1477 1480 1482 1484 1486 1488 1491 1493 1493 1493 1489 1483 1482 1483 1484 1484 1483 1483 1483 1483 1481 1479 1479 1478 1474 1469 1463 1459 1456 1455 1455 1457 1462 1451 1444 1440 1413 1410 1411 1412 1408 1405
1453 1457 1460 1464 1468 1472 1476 1478 1480 1483 1485 1488 1489 1492 1492 1488 1483 1480 1481 1481 1482 1481 1480 1479 1479 1480 1479 1479 1476 1472 1463 1464 1457 1454 1448 1447 1449 1456 1450 1433 1420 1412 1403 1406 1405 1403 1398
1447 1450 1454 1458 1462 1467 1470 1474 1477 1479 1482 1485 1486 1488 1490 1491 1481 1478 1478 1478 1476 1476 1476 1475 1476 1479 1480 1477 1475 1473 1460 1455 1454 1447 1445 1445 1447 1450 1442 1439 1425 1403 1404 1407 1408 1407 1391
1441 1444 1448 1452 1456 1461 1465 1468 1472 1475 1478 1481 1482 1484 1486 1485 1480 1480 1478 1477 1477 1476 1475 1475 1475 1477 1477 1476 1472 1466 1456 1448 1445 1440 1441 1444 1449 1447 1437 1433 1417 1406 1405 1406 1413 1408 1402
1434 1439 1443 1446 1451 1454 1458 1463 1467 1470 1473 1477 1480 1480 1482 1480 1476 1477 1477 1476 1474 1475 1474 1474 1477 1471 1475 1474 1467 1459 1456 1448 1442 1437 1435 1433 1433 1432 1434 1428 1420 1408 1408 1414 1410 1407 1405
1427 1433 1438 1442 1446 1449 1453 1457 1461 1465 1468 1472 1476 1478 1478 1477 1472 1471 1470 1469 1471 1472 1473 1474 1474 1469 1470 1469 1465 1461 1455 1453 1444 1442 1433 1431 1428 1428 1427 1420 1410 1410 1411 1410 1407 1405 1404